This demonstration page uses our WeatherBlox Daily Observations layout. Learn more.

Left ArrowRight Arrow

Hourly Observations for October 23, 2016

Temp ( °F °C ) Dew Point ( °F °C ) Humidity (%) Winds ( mph kmh ) Pressure ( in mb ) Visibility ( mi km ) Precip ( " mm )
12:51 am 00:51 Clear 59 15 42 5.6 54 54 SSW 3 6 29.93 1014 10 16 0.00 0.00
1:51 am 01:51 Clear 57 13.9 42 5.6 58 58 Calm 29.95 1014 10 16 0.00 0.00
2:51 am 02:51 Clear 57 13.9 41 5 55 55 N 5 7 29.95 1014 10 16 0.00 0.00
3:51 am 03:51 Clear 57 13.9 41 5 55 55 NNW 3 6 29.96 1014 10 16 0.00 0.00
4:51 am 04:51 Clear 58 14.4 40 4.4 51 51 VRB 3 6 29.98 1015 10 16 0.00 0.00
5:51 am 05:51 Clear 53 11.7 42 5.6 66 66 Calm 30.01 1016 10 16 0.00 0.03
6:51 am 06:51 Sunny 55 12.8 42 5.6 62 62 Calm 30.03 1017 10 16 0.00 0.00
7:51 am 07:51 Sunny 62 16.7 43 6.1 50 50 Calm 30.04 1017 10 16 0.00 0.00
8:51 am 08:51 Sunny 69 20.6 42 5.6 38 38 Calm 30.06 1018 10 16 0.00 0.00
9:51 am 09:51 Sunny 74 23.3 43 6.1 33 33 Calm 30.04 1017 10 16 0.00 0.00
10:51 am 10:51 Sunny 79 26.1 43 6.1 28 28 SSW 3 6 30.03 1017 10 16 0.00 0.00
11:51 am 11:51 Sunny 82 27.8 42 5.6 24 24 Calm 30.01 1016 10 16 0.00 0.00
12:51 pm 12:51 Sunny 85 29.4 42 5.6 22 22 W 8 13 29.98 1015 10 16 0.00 0.00
1:51 pm 13:51 Sunny 87 30.6 42 5.6 21 21 WSW 12 19 29.96 1014 10 16 0.00 0.00
2:51 pm 14:51 Sunny 86 30 41 5 20 20 W 10 17 29.94 1014 10 16 0.00 0.00
3:51 pm 15:51 Sunny 88 31.1 41 5 19 19 WNW 8 13 29.93 1013 10 16 0.00 0.00
4:51 pm 16:51 Sunny 86 30 40 4.4 20 20 WNW 9 15 29.92 1013 10 16 0.00 0.00
5:51 pm 17:51 Clear 78 25.6 42 5.6 28 28 W 8 13 29.96 1015 10 16 0.00 0.00
6:51 pm 18:51 Clear 75 23.9 41 5 29 29 W 6 9 29.98 1015 10 16 0.00 0.03
7:51 pm 19:51 Clear 70 21.1 41 5 35 35 WNW 6 9 29.98 1015 10 16 0.00 0.00
8:51 pm 20:51 Clear 67 19.4 42 5.6 41 41 Calm 30.00 1016 10 16 0.00 0.03
9:51 pm 21:51 Clear 64 17.8 42 5.6 45 45 ESE 5 7 30.01 1016 10 16 0.00 0.00
10:51 pm 22:51 Clear 63 17.2 43 6.1 48 48 S 5 7 30.00 1016 10 16 0.00 0.00
11:51 pm 23:51 Clear 61 16.1 42 5.6 50 50 Calm 30.00 1016 10 16 0.00 0.00

Powered by AerisWeather